Stations météo

réclame
Mon MeteoGroup
Marina Di Ginosa, Italie (16325): Température de l'air & dewpoint: 12.08.2018 02:00:00 - 18.08.2018 02:00:00 (CEST)Marina Di Ginosa, Italie (16325): Vitesse du vent: 12.08.2018 02:00:00 - 18.08.2018 02:00:00 (CEST)Marina Di Ginosa, Italie (16325): Direction du vent: 12.08.2018 02:00:00 - 18.08.2018 02:00:00 (CEST)Marina Di Ginosa, Italie (16325): reduced air pressure: 12.08.2018 02:00:00 - 18.08.2018 02:00:00 (CEST)Marina Di Ginosa, Italie (16325): visibility: 12.08.2018 02:00:00 - 18.08.2018 02:00:00 (CEST)
Date & Time tt [°C] td [°C] ff [km/h] ff [knt] dd ppp [hPa] vv [km]
18.08.2018 02:00:00 22,0 20,1 8 4 NNW 1013,9 18
18.08.2018 01:00:00 23,0 21,0 9 5 WNW - 10
18.08.2018 00:00:00 24,0 22,0 9 5 NNW - 10
17.08.2018 23:00:00 24,0 21,7 5 3 WNW 1013,9 18
17.08.2018 22:00:00 25,0 22,0 4 2 N - 10
17.08.2018 21:00:00 26,0 23,0 4 2 NW - 10
17.08.2018 20:00:00 26,2 22,5 5 3 SSW 1013,0 20
17.08.2018 19:00:00 27,0 22,0 5 3 S - 10
17.08.2018 18:00:00 28,0 21,0 8 4 E - 10
17.08.2018 17:00:00 29,0 21,0 13 7 E 1012,6 20
17.08.2018 16:00:00 30,0 17,0 15 8 NNE - 10
17.08.2018 15:00:00 32,0 22,0 13 7 SSE - 10
17.08.2018 14:00:00 33,0 21,2 13 7 S 1013,2 20
17.08.2018 13:00:00 32,0 19,0 5 3 WSW - 10
17.08.2018 12:00:00 30,0 19,0 8 4 ENE - 10
17.08.2018 11:00:00 30,0 19,1 9 5 NNW 1013,6 20
17.08.2018 10:00:00 28,0 21,0 11 6 W - 10
17.08.2018 09:00:00 25,0 20,0 11 6 WNW - 10
17.08.2018 08:00:00 22,4 19,4 11 6 WNW 1013,5 20
17.08.2018 07:00:00 20,0 19,0 11 6 WNW - 10
17.08.2018 06:00:00 20,0 18,0 11 6 WNW - 10
17.08.2018 05:00:00 20,6 18,7 13 7 W 1013,0 20
17.08.2018 04:00:00 21,0 19,0 13 7 W - 10
17.08.2018 03:00:00 21,0 19,0 11 6 NW - 10
17.08.2018 02:00:00 20,6 18,4 9 5 WNW 1012,9 20
17.08.2018 01:00:00 21,0 19,0 11 6 WNW - 10
17.08.2018 00:00:00 21,0 19,0 13 7 NW - 10
16.08.2018 23:00:00 21,0 19,3 11 6 NW 1013,3 20
16.08.2018 22:00:00 21,0 20,0 11 6 WNW - 10
16.08.2018 21:00:00 21,0 20,0 11 6 WNW - 10
16.08.2018 20:00:00 22,0 20,5 9 5 W 1012,3 20
16.08.2018 19:00:00 23,0 21,0 5 3 WNW - 10
16.08.2018 18:00:00 22,0 20,0 8 4 NNW - 10
16.08.2018 17:00:00 21,4 19,9 9 5 NNW 1012,4 20
16.08.2018 16:00:00 22,0 21,0 8 4 N - 10
16.08.2018 15:00:00 22,0 21,0 13 7 SE - 10
16.08.2018 14:00:00 22,8 19,2 16 9 NNW 1013,3 15
16.08.2018 13:00:00 29,0 22,0 9 5 E - 10
16.08.2018 12:00:00 30,0 21,0 11 6 N - 10
16.08.2018 11:00:00 30,0 21,1 11 6 WNW 1011,5 20
16.08.2018 10:00:00 28,0 21,0 8 4 WNW - 10
16.08.2018 09:00:00 25,0 20,0 11 6 SSE - 10
16.08.2018 08:00:00 23,2 19,0 13 7 WNW 1011,4 20
16.08.2018 07:00:00 21,0 18,0 13 7 WNW - 10
16.08.2018 06:00:00 20,0 18,0 15 8 WNW - 10
16.08.2018 05:00:00 20,2 17,8 11 6 WNW 1011,4 20
16.08.2018 04:00:00 21,0 19,0 13 7 NNW - 10
16.08.2018 03:00:00 21,0 19,0 11 6 NW - 10
16.08.2018 02:00:00 21,0 18,9 11 6 NW 1012,0 20
16.08.2018 01:00:00 21,0 20,0 13 7 NW - 10
16.08.2018 00:00:00 22,0 20,0 9 5 WNW - 10
15.08.2018 23:00:00 22,4 20,0 9 5 NW 1011,7 20
15.08.2018 22:00:00 23,0 20,0 13 7 WNW - 10
15.08.2018 21:00:00 24,0 20,0 13 7 NW - 10
15.08.2018 20:00:00 24,8 20,5 21 11 WNW 1011,3 20
15.08.2018 19:00:00 26,0 21,0 16 9 N - 10
15.08.2018 18:00:00 28,0 19,0 16 9 NE - 10
15.08.2018 17:00:00 28,8 18,3 15 8 NNE 1010,1 20
15.08.2018 16:00:00 30,0 19,0 21 11 N - 10
15.08.2018 15:00:00 31,0 19,0 13 7 S - 10
15.08.2018 14:00:00 29,6 19,6 18 10 SSW 1010,3 20
15.08.2018 13:00:00 31,0 21,0 18 10 SSW - 10
15.08.2018 12:00:00 31,0 21,0 11 6 S - 10
15.08.2018 11:00:00 30,2 20,7 13 7 SE 1010,7 20
15.08.2018 10:00:00 30,0 20,0 5 3 W - 10
15.08.2018 09:00:00 27,0 20,0 11 6 NW - 10
15.08.2018 08:00:00 23,8 19,1 13 7 W 1011,6 20
15.08.2018 07:00:00 22,0 19,0 11 6 WNW - 10
15.08.2018 06:00:00 21,0 19,0 11 6 NW - 10
15.08.2018 05:00:00 21,4 19,5 11 6 NW 1010,6 20
15.08.2018 04:00:00 22,0 19,0 9 5 WNW - 10
15.08.2018 03:00:00 23,0 19,0 9 5 NW - 10
15.08.2018 02:00:00 23,6 20,0 11 6 NW 1011,2 20
15.08.2018 01:00:00 24,0 20,0 11 6 NW - 10
15.08.2018 00:00:00 24,0 21,0 11 6 NW - 10
14.08.2018 23:00:00 25,2 20,9 8 4 WNW 1011,4 20
14.08.2018 22:00:00 26,0 21,0 15 8 NNW - 10
14.08.2018 21:00:00 27,0 20,0 22 12 NW - 10
14.08.2018 20:00:00 28,0 21,5 21 11 WNW 1010,6 20
14.08.2018 19:00:00 30,0 19,0 9 5 WSW - 10
14.08.2018 18:00:00 30,0 24,0 16 9 S - 10
14.08.2018 17:00:00 32,0 22,7 18 10 S 1009,6 20
14.08.2018 16:00:00 34,0 21,0 18 10 SSE - 10
14.08.2018 15:00:00 34,0 22,0 21 11 SE - 10
14.08.2018 14:00:00 34,2 20,6 15 8 SSE 1011,0 20
14.08.2018 13:00:00 34,0 21,0 16 9 SSE - 10
14.08.2018 12:00:00 33,0 20,0 11 6 S - 10
14.08.2018 11:00:00 32,2 20,5 5 3 SSW 1011,9 20
14.08.2018 10:00:00 32,0 16,0 9 5 S - 10
14.08.2018 09:00:00 27,0 17,0 5 3 SW - 10
14.08.2018 08:00:00 23,4 17,8 8 4 NW 1011,9 18
14.08.2018 07:00:00 23,0 19,0 11 6 WNW - 10
14.08.2018 06:00:00 24,0 21,0 8 4 NW - 10
14.08.2018 05:00:00 24,0 21,7 9 5 NW 1011,7 18
14.08.2018 04:00:00 25,0 23,0 8 4 WNW - 10
14.08.2018 03:00:00 25,0 24,0 9 5 WNW - 10
14.08.2018 02:00:00 26,0 24,4 8 4 NW 1011,6 18
14.08.2018 01:00:00 27,0 25,0 5 3 N - 10
14.08.2018 00:00:00 27,0 25,0 5 3 N - 10
13.08.2018 23:00:00 28,0 26,0 8 4 N 1011,6 18
13.08.2018 22:00:00 29,0 26,0 5 3 E - 10
13.08.2018 21:00:00 29,0 27,0 8 4 SE - 10
13.08.2018 20:00:00 29,4 26,2 9 5 SSE 1011,5 20
13.08.2018 19:00:00 30,0 27,0 9 5 SSE - 10
13.08.2018 18:00:00 31,0 27,0 15 8 SSE - 10
13.08.2018 17:00:00 32,0 25,6 18 10 SSE 1011,9 20
13.08.2018 16:00:00 33,0 24,0 16 9 SSE - 10
13.08.2018 15:00:00 33,0 24,0 16 9 SSE - 10
13.08.2018 14:00:00 33,4 24,6 16 9 SSE 1013,5 20
13.08.2018 13:00:00 33,0 24,0 15 8 SE - 10
13.08.2018 12:00:00 33,0 23,0 13 7 SE - 10
13.08.2018 11:00:00 32,0 22,7 9 5 ESE 1014,0 18
13.08.2018 10:00:00 32,0 20,0 4 2 SSW - 10
13.08.2018 09:00:00 29,0 20,0 11 6 WNW - 10
13.08.2018 08:00:00 25,8 19,9 9 5 W 1013,5 20
13.08.2018 07:00:00 23,0 19,0 11 6 WNW - 10
13.08.2018 06:00:00 23,0 19,0 11 6 WNW - 10
13.08.2018 05:00:00 23,0 20,0 9 5 NW 1013,3 20
13.08.2018 04:00:00 24,0 21,0 9 5 WNW - 10
13.08.2018 03:00:00 24,0 21,0 9 5 NW - 10
13.08.2018 02:00:00 24,4 21,3 8 4 NW 1014,0 20
13.08.2018 01:00:00 25,0 22,0 5 3 NNE - 10
13.08.2018 00:00:00 26,0 24,0 4 2 N - 10
12.08.2018 23:00:00 27,0 25,2 8 4 ESE 1014,5 20
12.08.2018 22:00:00 28,0 26,0 9 5 ENE - 10
12.08.2018 21:00:00 28,0 26,0 8 4 ENE - 10
12.08.2018 20:00:00 29,2 26,0 5 3 ESE 1014,0 18
12.08.2018 19:00:00 30,0 24,0 9 5 SSW - 10
12.08.2018 18:00:00 31,0 24,0 15 8 SSW - 10
12.08.2018 17:00:00 31,0 24,4 18 10 SSW 1014,5 18
12.08.2018 16:00:00 33,0 24,0 18 10 S - 10
12.08.2018 15:00:00 35,0 24,0 16 9 S - 10
12.08.2018 14:00:00 35,6 24,9 13 7 S 1015,7 18
12.08.2018 13:00:00 35,0 21,0 13 7 W - 10
12.08.2018 12:00:00 35,0 17,0 11 6 S - 10
12.08.2018 11:00:00 33,6 19,7 9 5 S 1016,0 18
12.08.2018 10:00:00 32,0 20,0 4 2 E - 10
12.08.2018 09:00:00 29,0 22,0 5 3 NW - 10
12.08.2018 08:00:00 24,8 21,3 8 4 NW 1015,9 15
12.08.2018 07:00:00 22,0 21,0 11 6 WNW - 10
12.08.2018 06:00:00 23,0 21,0 11 6 NW - 10
12.08.2018 05:00:00 23,0 21,6 9 5 WNW 1015,4 15
12.08.2018 04:00:00 23,0 20,0 9 5 WNW - 10
12.08.2018 03:00:00 23,0 21,0 15 8 NW - 10
12.08.2018 02:00:00 23,2 20,5 13 7 WNW 1016,2 15

tt = Température de l'air
td = dewpoint
ff = Vitesse du vent
dd = Direction du vent
ppp = reduced air pressure
vv = visibility

stations d'obs. à proximité